Regional Weather Roundup
Issued by NWS

Home | Current Version | Previous Version | Text Only | Print | Product List | Glossary On
Versions: 1 2 3 4 5 6 7 8 9 10 11 12 13 14 15 16 17 18 19 20 21 22 23 24 25 26 27 28 29 30 31 32 33 34 35 36 37 38 39 40 41 42 43 44 45 46 47 48 49 50
000
ASUS45 KBOU 090710
RWRCO

WEATHER ROUNDUP FOR COLORADO
NATIONAL WEATHER SERVICE DENVER/BOULDER CO
100 AM MDT WED JUL 09 2014

NOTE: "FAIR" INDICATES FEW OR NO CLOUDS BELOW 12000 FEET WITH NO
SIGNIFICANT WEATHER AND/OR OBSTRUCTIONS TO VISIBILITY.

COZ001>005-013-030-031-090800-
...NORTHWEST COLORADO...

CITY           SKY/WX    TMP DP  RH WIND       PRES   REMARKS
CRAIG          CLEAR     54  48  80 CALM      30.18R
HAYDEN         CLEAR     63  39  42 E6        30.21R
MEEKER         PTCLDY    63  41  44 E5        30.21R
MOUNT WERNER   CLEAR     61  32  33 E7        30.55R
STEAMBOAT SPGS CLEAR     57  43  59 NE6       30.24R
WALDEN         PTCLDY    50  43  76 SE7       30.34S
$$

COZ006>008-011-090800-
...WEST CENTRAL VALLEYS...

CITY           SKY/WX    TMP DP  RH WIND       PRES   REMARKS
GRAND JUNCTION MOCLDY    80  40  23 SE18      30.08R
MONTROSE       MOCLDY    73  45  36 SE7       30.21S
EAGLE          PTCLDY    59  45  58 CALM      30.26R
RIFLE          PTCLDY    69  40  34 E6        30.16R
DELTA          MOCLDY    76  45  32 N10       30.18R
NUCLA          MOCLDY    73  45  35 S14       30.31R
$$

COZ017>023-064>068-090800-
...SOUTHWEST COLORADO...

CITY           SKY/WX    TMP DP  RH WIND       PRES   REMARKS
DURANGO        MOCLDY    58  51  78 NE6       30.39F
CORTEZ         CLEAR     65  52  62 W12       30.31S
PAGOSA SPRINGS MOCLDY    58  46  66 CALM      30.46S
TELLURIDE      MOCLDY    59  45  58 E5        30.48F
WOLF CREEK PAS NOT AVBL
$$

COZ009-010-012-014-032>034-037-058>063-090800-
...CENTRAL COLORADO...

CITY           SKY/WX    TMP DP  RH WIND       PRES   REMARKS
ASPEN          PTCLDY    64  41  42 SE14      30.35R
BUENA VISTA    PTCLDY    55  46  71 W3        30.42S
COPPER MTN     CLEAR     54  34  47 S18       30.67S
BERTHOUD PASS  FAIR      45  32  61 W13       30.69S
COTTONWOOD PAS PTCLDY    59  39  47 W3        30.54S
GUNNISON       NOT AVBL
KREMMLING      CLEAR     55  37  50 CALM      30.32R
LEADVILLE      PTCLDY    44  36  73 NE6       30.52S
MONARCH PASS   MOCLDY    45  36  70 SW25      30.78F
SALIDA         PTCLDY    63  46  53 W3        30.44S
SUNLIGHT       PTCLDY    54  37  54 S3        30.58F
WILKERSON PASS PTCLDY    45  37  76 SW12G20   30.63S
$$

COZ069>075-090800-
...SAN LUIS VALLEY/SANGRE DE CRISTO MOUNTAINS...

CITY           SKY/WX    TMP DP  RH WIND       PRES   REMARKS
ALAMOSA        MOCLDY    53  45  74 S3        30.40F
LA VETA PASS   PTCLDY    46  39  76 SW16G25   30.54S
SAGUACHE       NOT AVBL
$$

COZ035-036-038>040-090800-
...NORTHERN COLORADO FRONT RANGE...

CITY           SKY/WX    TMP DP  RH WIND       PRES   REMARKS
DENVER INTL AP PTCLDY    66  53  63 SW8       30.17F
DMNS CITY PARK   N/A     66  57  72 S2        30.17S
AURORA         PTCLDY    63  55  74 VRB1      30.20F
FRONT RANGE AP NOT AVBL
ERIE MUNI ARPT CLEAR     65  59  82 CALM      30.15F
BOULDER MUN AP CLEAR     66  54  63 SW3       30.16F
CENTENNIAL     PTCLDY    62  52  69 S5        30.20F
BROOMFIELD     CLEAR     68  55  64 NW8       30.19S
FORT COLLINS   CLEAR     64  57  77 N6        30.16F
LONGMONT       CLEAR     65  58  78 CALM      30.17F
$$

COZ041-046-047-076>085-087-088-090800-
...PIKES PEAK/PALMER DIVIDE AND SOUTHERN FOOTHILLS...

CITY           SKY/WX    TMP DP  RH WIND       PRES   REMARKS
COLO. SPRINGS  PTCLDY    54  49  83 NE7       30.26F
A. F. ACADEMY  PTCLDY    53  53  99 NW6       30.27F
ELLICOTT       NOT AVBL
FALCON         PTCLDY    53  47  81 NW5       30.29F
FORT CARSON    CLOUDY    56  54  94 NW7       30.22F
LIMON          CLEAR     59  53  80 SE5       30.21F
MONUMENT HILL  CLEAR     54  46  76 S8        30.29F
TRINIDAD       PTCLDY    66  45  46 W17G25    30.22F
$$

COZ042>045-048>051-090-091-090800-
...NORTHEAST COLORADO...

CITY           SKY/WX    TMP DP  RH WIND       PRES   REMARKS
GREELEY ARPT   CLEAR     63  55  77 E8        30.14F
AKRON          CLEAR     64  57  78 S13       30.17F
BURLINGTON     CLEAR     64  56  75 S10       30.17F
WRAY           CLEAR     66  55  66 E6        30.14S
STERLING       CLEAR     68  59  73 CALM      30.13F
HOLYOKE        PTCLDY    64  55  72 S9        30.14S
FORT MORGAN    CLEAR     64  56  75 SE8       30.15F
$$

COZ086-089-092>099-090800-
...SOUTHEAST COLORADO...

CITY           SKY/WX    TMP DP  RH WIND       PRES   REMARKS
PUEBLO         CLEAR     61  57  87 W6        30.15F
LA JUNTA       PTCLDY    70  53  54 N7        30.15R
LAMAR          MOCLDY    71  51  49 S16       30.11F
SPRINGFIELD      N/A     65  52  62 S8        30.19S
$$



USA.gov is the U.S. government's official web portal to all federal, state and local government web resources and services.